Location: Malvern Link
(52.1333°N, 2.3000°W)
Time: 01:31:17
(UTC+00:00)

Lacrosse 4 Rocket - Pass Details

Date: 18 September 2020
Orbit: 543 x 615 km, 68.0° (Epoch: 23 October)

Event Time Altitude Azimuth Distance (km) Brightness Sun altitude
Rises 22:35:18 0° 319° (NW) 2,718 5.9 -33.4°
Reaches altitude 10° 22:37:33 10° 313° (NW) 1,824 4.7 -33.5°
Enters shadow 22:38:25 16° 308° (NW) 1,497 4.1 -33.6°
